Find Starlink 38168

NORAD ID: 100251 Int'l Des: 2026-181 Owner: SPXS Country: US Constellation: starlink operational

Current View

Loading 3D Globe...

About Starlink 38168

Starlink 38168 (NORAD 100251) is a starlink constellation satellite launched Aug 8, 2026 by SPXS of US. with a mass of 575.00 kg.

Upcoming Passes

Passes for default location (London). Set your location on the main map for personalized predictions.

Altitude History

Loading altitude history...

Two-Line Element Set

1 A0251U 26181F 26251.58620092 .00255064 00000-0 16596-2 0 9995
2 A0251 97.2839 294.5737 0001009 62.8363 297.3005 15.75200164 6084
Epoch: Sep 8, 2026 • Age: 5 hours

Current Status

Altitude 356.3 km
Apogee / Perigee N/A
Velocity 7.70 km/s
Sub-Earth Point 78.36°N, 15.93°W
Launch Date Aug 8, 2026
Age 31 days
Type internet

Technical Details

Classification Payload
Mass 575.00 kg
Dry Mass 530.00 kg
Total Mass 575.00 kg
Length 0.30 m
Diameter 4.10 m
Span 29.00 m
Shape Box + pan
Manufacturer SPXS
Bus Type Starlink V2MO
Phase Status In Orbit
Owner/State SPXS/US

Most Searched